Location: Canet
(43.3261°N, 5.3723°E)
Time: 17:51:22
(UTC+00:00)

Cosmos 1340 - Visible Passes

Search period start: 14 May 2021 00:00
Search period end: 24 May 2021 00:00
Orbit: 499 x 504 km, 81.2° (Epoch: 14 May)

Date Brightness Start Highest point End Pass type
(mag) Time Alt. Az. Time Alt. Az. Time Alt. Az.
14 May 5.2 01:30:49 11° ESE 01:32:39 15° E 01:34:48 10° NE visible
14 May 3.4 03:05:33 18° SW 03:07:53 35° WNW 03:11:22 10° N visible
15 May 5.4 01:12:16 10° ESE 01:13:20 11° E 01:14:24 10° ENE visible
15 May 3.0 02:46:31 25° SW 02:48:24 48° WNW 02:52:04 10° N visible
16 May 2.6 02:27:28 34° SSW 02:28:58 67° W 02:32:43 10° N visible
17 May 2.5 02:08:23 43° S 02:09:31 87° E 02:13:17 10° N visible
18 May 2.9 01:49:16 47° SSE 01:50:06 63° E 01:53:49 10° NNE visible
19 May 3.4 01:30:09 41° ESE 01:30:42 45° E 01:34:18 10° NNE visible
19 May 4.8 03:04:52 10° W 03:06:33 13° WNW 03:08:15 10° NW visible
20 May 3.9 01:11:00 32° ESE 01:11:19 33° E 01:14:42 10° NNE visible
20 May 4.5 02:45:43 14° W 02:46:59 17° WNW 02:49:28 10° NNW visible
21 May 4.4 00:51:50 24° E 00:51:56 24° E 00:55:01 10° NE visible
21 May 4.2 02:26:33 20° W 02:27:27 21° WNW 02:30:24 10° NNW visible
22 May 4.8 00:32:38 18° E 00:32:38 18° E 00:35:13 10° NE visible
22 May 3.8 02:07:22 27° W 02:07:57 28° WNW 02:11:14 10° NNW visible
23 May 5.1 00:13:26 14° E 00:13:26 14° E 00:15:14 10° NE visible
23 May 3.3 01:48:09 37° W 01:48:26 38° WNW 01:51:58 10° N visible
23 May 5.4 23:54:13 10° E 23:54:13 10° E 23:54:29 10° ENE visible
